owner,sensor,date,latitude,longitude,vertical_datum,sea_water_temperature,qcFlag 
WAVCIS,ioos:station:WAVCIS:CSI16:2,2011-08-01T00:00:00Z,29.4012,-89.0355,10.0,29.224,11111222 
WAVCIS,ioos:station:WAVCIS:CSI16:2,2011-08-01T00:15:00Z,29.4012,-89.0355,10.0,27.149,11111222 
WAVCIS,ioos:station:WAVCIS:CSI16:2,2011-08-01T00:30:00Z,29.4012,-89.0355,10.0,28.672,11111222 
WAVCIS,ioos:station:WAVCIS:CSI16:2,2011-08-01T00:45:00Z,29.4012,-89.0355,10.0,29.558,11111222 
WAVCIS,ioos:station:WAVCIS:CSI16:2,2011-08-01T01:00:00Z,29.4012,-89.0355,10.0,29.391,11111222 
WAVCIS,ioos:station:WAVCIS:CSI16:2,2011-08-01T01:15:00Z,29.4012,-89.0355,10.0,29.548,11111222 
WAVCIS,ioos:station:WAVCIS:CSI16:2,2011-08-01T01:30:00Z,29.4012,-89.0355,10.0,29.644,11111222 
WAVCIS,ioos:station:WAVCIS:CSI16:2,2011-08-01T01:45:00Z,29.4012,-89.0355,10.0,29.666,11111222 
WAVCIS,ioos:station:WAVCIS:CSI16:2,2011-08-01T02:00:00Z,29.4012,-89.0355,10.0,29.592,11111222 
WAVCIS,ioos:station:WAVCIS:CSI16:2,2011-08-01T02:15:00Z,29.4012,-89.0355,10.0,29.515,11111222 
WAVCIS,ioos:station:WAVCIS:CSI16:2,2011-08-01T02:30:00Z,29.4012,-89.0355,10.0,29.694,11111222 
WAVCIS,ioos:station:WAVCIS:CSI16:2,2011-08-01T02:45:00Z,29.4012,-89.0355,10.0,29.715,11111222 
WAVCIS,ioos:station:WAVCIS:CSI16:2,2011-08-01T03:00:00Z,29.4012,-89.0355,10.0,29.531,11111222 
WAVCIS,ioos:station:WAVCIS:CSI16:2,2011-08-01T03:15:00Z,29.4012,-89.0355,10.0,29.545,11111222 
WAVCIS,ioos:station:WAVCIS:CSI16:2,2011-08-01T03:30:00Z,29.4012,-89.0355,10.0,29.426,11111222 
WAVCIS,ioos:station:WAVCIS:CSI16:2,2011-08-01T03:45:00Z,29.4012,-89.0355,10.0,29.637,11111222 
WAVCIS,ioos:station:WAVCIS:CSI16:2,2011-08-01T04:00:00Z,29.4012,-89.0355,10.0,29.736,11111222 
WAVCIS,ioos:station:WAVCIS:CSI16:2,2011-08-01T04:15:00Z,29.4012,-89.0355,10.0,29.888,11111222 
WAVCIS,ioos:station:WAVCIS:CSI16:2,2011-08-01T04:30:00Z,29.4012,-89.0355,10.0,30.021,11111222 
WAVCIS,ioos:station:WAVCIS:CSI16:2,2011-08-01T04:45:00Z,29.4012,-89.0355,10.0,29.876,11111222 
WAVCIS,ioos:station:WAVCIS:CSI16:2,2011-08-01T05:00:00Z,29.4012,-89.0355,10.0,29.813,11111222 
WAVCIS,ioos:station:WAVCIS:CSI16:2,2011-08-01T05:15:00Z,29.4012,-89.0355,10.0,29.862,11111222 
WAVCIS,ioos:station:WAVCIS:CSI16:2,2011-08-01T05:30:00Z,29.4012,-89.0355,10.0,29.74,11111222 
WAVCIS,ioos:station:WAVCIS:CSI16:2,2011-08-01T05:45:00Z,29.4012,-89.0355,10.0,29.554,11111222 
WAVCIS,ioos:station:WAVCIS:CSI16:2,2011-08-01T06:00:00Z,29.4012,-89.0355,10.0,29.087,11111222 
WAVCIS,ioos:station:WAVCIS:CSI16:2,2011-08-01T06:15:00Z,29.4012,-89.0355,10.0,29.024,11111222 
WAVCIS,ioos:station:WAVCIS:CSI16:2,2011-08-01T06:30:00Z,29.4012,-89.0355,10.0,28.698,11111222 
WAVCIS,ioos:station:WAVCIS:CSI16:2,2011-08-01T06:45:00Z,29.4012,-89.0355,10.0,28.616,11111222 
WAVCIS,ioos:station:WAVCIS:CSI16:2,2011-08-01T07:00:00Z,29.4012,-89.0355,10.0,28.791,11111222 
WAVCIS,ioos:station:WAVCIS:CSI16:2,2011-08-01T07:15:00Z,29.4012,-89.0355,10.0,28.259,11111222 
WAVCIS,ioos:station:WAVCIS:CSI16:2,2011-08-01T07:30:00Z,29.4012,-89.0355,10.0,27.969,11111222 
WAVCIS,ioos:station:WAVCIS:CSI16:2,2011-08-01T07:45:00Z,29.4012,-89.0355,10.0,28.064,11111222 
WAVCIS,ioos:station:WAVCIS:CSI16:2,2011-08-01T08:00:00Z,29.4012,-89.0355,10.0,28.008,11111222 
WAVCIS,ioos:station:WAVCIS:CSI16:2,2011-08-01T08:15:00Z,29.4012,-89.0355,10.0,26.898,11111222 
WAVCIS,ioos:station:WAVCIS:CSI16:2,2011-08-01T08:30:00Z,29.4012,-89.0355,10.0,26.9,11111222 
WAVCIS,ioos:station:WAVCIS:CSI16:2,2011-08-01T08:45:00Z,29.4012,-89.0355,10.0,26.921,11111222 
WAVCIS,ioos:station:WAVCIS:CSI16:2,2011-08-01T09:00:00Z,29.4012,-89.0355,10.0,26.803,11111222 
WAVCIS,ioos:station:WAVCIS:CSI16:2,2011-08-01T09:15:00Z,29.4012,-89.0355,10.0,26.778,11111222 
WAVCIS,ioos:station:WAVCIS:CSI16:2,2011-08-01T09:30:00Z,29.4012,-89.0355,10.0,26.499,11111222 
WAVCIS,ioos:station:WAVCIS:CSI16:2,2011-08-01T09:45:00Z,29.4012,-89.0355,10.0,26.515,11111222 
WAVCIS,ioos:station:WAVCIS:CSI16:2,2011-08-01T10:00:00Z,29.4012,-89.0355,10.0,26.42,11111222 
WAVCIS,ioos:station:WAVCIS:CSI16:2,2011-08-01T10:15:00Z,29.4012,-89.0355,10.0,26.242,11111222 
WAVCIS,ioos:station:WAVCIS:CSI16:2,2011-08-01T10:30:00Z,29.4012,-89.0355,10.0,26.102,11111222 
WAVCIS,ioos:station:WAVCIS:CSI16:2,2011-08-01T10:45:00Z,29.4012,-89.0355,10.0,26.06,11111222 
WAVCIS,ioos:station:WAVCIS:CSI16:2,2011-08-01T11:00:00Z,29.4012,-89.0355,10.0,26.246,11111222 
WAVCIS,ioos:station:WAVCIS:CSI16:2,2011-08-01T11:15:00Z,29.4012,-89.0355,10.0,26.227,11111222 
WAVCIS,ioos:station:WAVCIS:CSI16:2,2011-08-01T11:30:00Z,29.4012,-89.0355,10.0,26.159,11111222 
WAVCIS,ioos:station:WAVCIS:CSI16:2,2011-08-01T11:45:00Z,29.4012,-89.0355,10.0,25.923,11111222 
WAVCIS,ioos:station:WAVCIS:CSI16:2,2011-08-01T12:00:00Z,29.4012,-89.0355,10.0,25.888,11111222 
WAVCIS,ioos:station:WAVCIS:CSI16:2,2011-08-01T12:15:00Z,29.4012,-89.0355,10.0,25.866,11111222 
WAVCIS,ioos:station:WAVCIS:CSI16:2,2011-08-01T12:30:00Z,29.4012,-89.0355,10.0,25.885,11111222 
WAVCIS,ioos:station:WAVCIS:CSI16:2,2011-08-01T12:45:00Z,29.4012,-89.0355,10.0,25.818,11111222 
WAVCIS,ioos:station:WAVCIS:CSI16:2,2011-08-01T13:00:00Z,29.4012,-89.0355,10.0,25.815,11111222 
WAVCIS,ioos:station:WAVCIS:CSI16:2,2011-08-01T13:15:00Z,29.4012,-89.0355,10.0,25.808,11111222 
WAVCIS,ioos:station:WAVCIS:CSI16:2,2011-08-01T13:30:00Z,29.4012,-89.0355,10.0,25.802,11111222 
WAVCIS,ioos:station:WAVCIS:CSI16:2,2011-08-01T13:45:00Z,29.4012,-89.0355,10.0,25.803,11111222 
WAVCIS,ioos:station:WAVCIS:CSI16:2,2011-08-01T14:00:00Z,29.4012,-89.0355,10.0,25.815,11111222 
WAVCIS,ioos:station:WAVCIS:CSI16:2,2011-08-01T14:15:00Z,29.4012,-89.0355,10.0,25.818,11111222 
WAVCIS,ioos:station:WAVCIS:CSI16:2,2011-08-01T14:30:00Z,29.4012,-89.0355,10.0,25.831,11111222 
WAVCIS,ioos:station:WAVCIS:CSI16:2,2011-08-01T14:45:00Z,29.4012,-89.0355,10.0,25.821,11111222 
WAVCIS,ioos:station:WAVCIS:CSI16:2,2011-08-01T15:00:00Z,29.4012,-89.0355,10.0,25.83,11111222 
WAVCIS,ioos:station:WAVCIS:CSI16:2,2011-08-01T15:15:00Z,29.4012,-89.0355,10.0,25.83,11111222 
WAVCIS,ioos:station:WAVCIS:CSI16:2,2011-08-01T15:30:00Z,29.4012,-89.0355,10.0,25.841,11111222 
WAVCIS,ioos:station:WAVCIS:CSI16:2,2011-08-01T15:45:00Z,29.4012,-89.0355,10.0,25.845,11111222 
WAVCIS,ioos:station:WAVCIS:CSI16:2,2011-08-01T16:00:00Z,29.4012,-89.0355,10.0,25.867,11111222 
WAVCIS,ioos:station:WAVCIS:CSI16:2,2011-08-01T16:15:00Z,29.4012,-89.0355,10.0,25.823,11111222 
WAVCIS,ioos:station:WAVCIS:CSI16:2,2011-08-01T16:30:00Z,29.4012,-89.0355,10.0,25.799,11111222 
WAVCIS,ioos:station:WAVCIS:CSI16:2,2011-08-01T16:45:00Z,29.4012,-89.0355,10.0,25.803,11111222 
WAVCIS,ioos:station:WAVCIS:CSI16:2,2011-08-01T17:00:00Z,29.4012,-89.0355,10.0,25.798,11111222 
WAVCIS,ioos:station:WAVCIS:CSI16:2,2011-08-01T17:15:00Z,29.4012,-89.0355,10.0,25.789,11111222 
WAVCIS,ioos:station:WAVCIS:CSI16:2,2011-08-01T17:30:00Z,29.4012,-89.0355,10.0,25.791,11111222 
WAVCIS,ioos:station:WAVCIS:CSI16:2,2011-08-01T17:45:00Z,29.4012,-89.0355,10.0,25.78,11111222 
WAVCIS,ioos:station:WAVCIS:CSI16:2,2011-08-01T18:00:00Z,29.4012,-89.0355,10.0,25.762,11111222 
WAVCIS,ioos:station:WAVCIS:CSI16:2,2011-08-01T18:15:00Z,29.4012,-89.0355,10.0,25.76,11111222 
WAVCIS,ioos:station:WAVCIS:CSI16:2,2011-08-01T18:30:00Z,29.4012,-89.0355,10.0,25.76,11111222 
WAVCIS,ioos:station:WAVCIS:CSI16:2,2011-08-01T18:45:00Z,29.4012,-89.0355,10.0,25.764,11111222 
WAVCIS,ioos:station:WAVCIS:CSI16:2,2011-08-01T19:00:00Z,29.4012,-89.0355,10.0,25.753,11111222 
WAVCIS,ioos:station:WAVCIS:CSI16:2,2011-08-01T19:15:00Z,29.4012,-89.0355,10.0,25.775,11111222 
WAVCIS,ioos:station:WAVCIS:CSI16:2,2011-08-01T19:30:00Z,29.4012,-89.0355,10.0,25.804,11111222 
WAVCIS,ioos:station:WAVCIS:CSI16:2,2011-08-01T19:45:00Z,29.4012,-89.0355,10.0,25.869,11111222 
WAVCIS,ioos:station:WAVCIS:CSI16:2,2011-08-01T20:00:00Z,29.4012,-89.0355,10.0,25.907,11111222 
WAVCIS,ioos:station:WAVCIS:CSI16:2,2011-08-01T20:15:00Z,29.4012,-89.0355,10.0,25.961,11111222 
WAVCIS,ioos:station:WAVCIS:CSI16:2,2011-08-01T20:30:00Z,29.4012,-89.0355,10.0,26.094,11111222 
WAVCIS,ioos:station:WAVCIS:CSI16:2,2011-08-01T20:45:00Z,29.4012,-89.0355,10.0,26.108,11111222 
WAVCIS,ioos:station:WAVCIS:CSI16:2,2011-08-01T21:00:00Z,29.4012,-89.0355,10.0,26.321,11111222 
WAVCIS,ioos:station:WAVCIS:CSI16:2,2011-08-01T21:15:00Z,29.4012,-89.0355,10.0,26.391,11111222 
WAVCIS,ioos:station:WAVCIS:CSI16:2,2011-08-01T21:30:00Z,29.4012,-89.0355,10.0,27.029,11111222 
WAVCIS,ioos:station:WAVCIS:CSI16:2,2011-08-01T21:45:00Z,29.4012,-89.0355,10.0,27.351,11111222 
WAVCIS,ioos:station:WAVCIS:CSI16:2,2011-08-01T22:00:00Z,29.4012,-89.0355,10.0,27.236,11111222 
WAVCIS,ioos:station:WAVCIS:CSI16:2,2011-08-01T22:15:00Z,29.4012,-89.0355,10.0,27.896,11111222 
WAVCIS,ioos:station:WAVCIS:CSI16:2,2011-08-01T22:30:00Z,29.4012,-89.0355,10.0,28.982,11111222 
WAVCIS,ioos:station:WAVCIS:CSI16:2,2011-08-01T22:45:00Z,29.4012,-89.0355,10.0,29.142,11111222 
WAVCIS,ioos:station:WAVCIS:CSI16:2,2011-08-01T23:00:00Z,29.4012,-89.0355,10.0,29.245,11111222 
WAVCIS,ioos:station:WAVCIS:CSI16:2,2011-08-01T23:15:00Z,29.4012,-89.0355,10.0,29.385,11111222 
WAVCIS,ioos:station:WAVCIS:CSI16:2,2011-08-01T23:30:00Z,29.4012,-89.0355,10.0,29.381,11111222 
WAVCIS,ioos:station:WAVCIS:CSI16:2,2011-08-01T23:45:00Z,29.4012,-89.0355,10.0,29.838,11111222 
WAVCIS,ioos:station:WAVCIS:CSI16:2,2011-08-02T00:00:00Z,29.4012,-89.0355,10.0,29.877,11111222 
WAVCIS,ioos:station:WAVCIS:CSI16:2,2011-08-02T00:15:00Z,29.4012,-89.0355,10.0,29.892,11111222 
WAVCIS,ioos:station:WAVCIS:CSI16:2,2011-08-02T00:30:00Z,29.4012,-89.0355,10.0,29.998,11111222 
WAVCIS,ioos:station:WAVCIS:CSI16:2,2011-08-02T00:45:00Z,29.4012,-89.0355,10.0,30.038,11111222 
WAVCIS,ioos:station:WAVCIS:CSI16:2,2011-08-02T01:00:00Z,29.4012,-89.0355,10.0,30.066,11111222 
WAVCIS,ioos:station:WAVCIS:CSI16:2,2011-08-02T01:15:00Z,29.4012,-89.0355,10.0,30.105,11111222 
WAVCIS,ioos:station:WAVCIS:CSI16:2,2011-08-02T01:30:00Z,29.4012,-89.0355,10.0,30.192,11111222 
WAVCIS,ioos:station:WAVCIS:CSI16:2,2011-08-02T01:45:00Z,29.4012,-89.0355,10.0,30.226,11111222 
WAVCIS,ioos:station:WAVCIS:CSI16:2,2011-08-02T02:00:00Z,29.4012,-89.0355,10.0,30.245,11111222 
WAVCIS,ioos:station:WAVCIS:CSI16:2,2011-08-02T02:15:00Z,29.4012,-89.0355,10.0,30.192,11111222 
WAVCIS,ioos:station:WAVCIS:CSI16:2,2011-08-02T02:30:00Z,29.4012,-89.0355,10.0,30.129,11111222 
WAVCIS,ioos:station:WAVCIS:CSI16:2,2011-08-02T02:45:00Z,29.4012,-89.0355,10.0,29.813,11111222 
WAVCIS,ioos:station:WAVCIS:CSI16:2,2011-08-02T03:00:00Z,29.4012,-89.0355,10.0,29.482,11111222 
WAVCIS,ioos:station:WAVCIS:CSI16:2,2011-08-02T03:15:00Z,29.4012,-89.0355,10.0,29.428,11111222 
WAVCIS,ioos:station:WAVCIS:CSI16:2,2011-08-02T03:30:00Z,29.4012,-89.0355,10.0,29.196,11111222 
WAVCIS,ioos:station:WAVCIS:CSI16:2,2011-08-02T03:45:00Z,29.4012,-89.0355,10.0,29.516,11111222 
WAVCIS,ioos:station:WAVCIS:CSI16:2,2011-08-02T04:00:00Z,29.4012,-89.0355,10.0,29.389,11111222 
WAVCIS,ioos:station:WAVCIS:CSI16:2,2011-08-02T04:15:00Z,29.4012,-89.0355,10.0,28.11,11111222 
WAVCIS,ioos:station:WAVCIS:CSI16:2,2011-08-02T04:30:00Z,29.4012,-89.0355,10.0,28.897,11111222 
WAVCIS,ioos:station:WAVCIS:CSI16:2,2011-08-02T04:45:00Z,29.4012,-89.0355,10.0,28.507,11111222 
WAVCIS,ioos:station:WAVCIS:CSI16:2,2011-08-02T05:00:00Z,29.4012,-89.0355,10.0,28.951,11111222 
WAVCIS,ioos:station:WAVCIS:CSI16:2,2011-08-02T05:15:00Z,29.4012,-89.0355,10.0,28.566,11111222 
WAVCIS,ioos:station:WAVCIS:CSI16:2,2011-08-02T05:30:00Z,29.4012,-89.0355,10.0,28.416,11111222 
WAVCIS,ioos:station:WAVCIS:CSI16:2,2011-08-02T05:45:00Z,29.4012,-89.0355,10.0,28.229,11111222 
WAVCIS,ioos:station:WAVCIS:CSI16:2,2011-08-02T06:00:00Z,29.4012,-89.0355,10.0,27.925,11111222 
WAVCIS,ioos:station:WAVCIS:CSI16:2,2011-08-02T06:15:00Z,29.4012,-89.0355,10.0,27.435,11111222 
WAVCIS,ioos:station:WAVCIS:CSI16:2,2011-08-02T06:30:00Z,29.4012,-89.0355,10.0,27.256,11111222 
WAVCIS,ioos:station:WAVCIS:CSI16:2,2011-08-02T06:45:00Z,29.4012,-89.0355,10.0,26.838,11111222 
WAVCIS,ioos:station:WAVCIS:CSI16:2,2011-08-02T07:00:00Z,29.4012,-89.0355,10.0,26.669,11111222 
WAVCIS,ioos:station:WAVCIS:CSI16:2,2011-08-02T07:15:00Z,29.4012,-89.0355,10.0,26.62,11111222 
WAVCIS,ioos:station:WAVCIS:CSI16:2,2011-08-02T07:30:00Z,29.4012,-89.0355,10.0,26.537,11111222 
WAVCIS,ioos:station:WAVCIS:CSI16:2,2011-08-02T07:45:00Z,29.4012,-89.0355,10.0,26.851,11111222 
WAVCIS,ioos:station:WAVCIS:CSI16:2,2011-08-02T08:00:00Z,29.4012,-89.0355,10.0,26.854,11111222 
WAVCIS,ioos:station:WAVCIS:CSI16:2,2011-08-02T08:15:00Z,29.4012,-89.0355,10.0,26.909,11111222 
WAVCIS,ioos:station:WAVCIS:CSI16:2,2011-08-02T08:30:00Z,29.4012,-89.0355,10.0,26.7,11111222 
WAVCIS,ioos:station:WAVCIS:CSI16:2,2011-08-02T08:45:00Z,29.4012,-89.0355,10.0,26.622,11111222 
WAVCIS,ioos:station:WAVCIS:CSI16:2,2011-08-02T09:00:00Z,29.4012,-89.0355,10.0,26.622,11111222 
WAVCIS,ioos:station:WAVCIS:CSI16:2,2011-08-02T09:15:00Z,29.4012,-89.0355,10.0,26.559,11111222 
WAVCIS,ioos:station:WAVCIS:CSI16:2,2011-08-02T09:30:00Z,29.4012,-89.0355,10.0,26.634,11111222 
WAVCIS,ioos:station:WAVCIS:CSI16:2,2011-08-02T09:45:00Z,29.4012,-89.0355,10.0,26.654,11111222 
WAVCIS,ioos:station:WAVCIS:CSI16:2,2011-08-02T10:00:00Z,29.4012,-89.0355,10.0,26.538,11111222 
WAVCIS,ioos:station:WAVCIS:CSI16:2,2011-08-02T10:15:00Z,29.4012,-89.0355,10.0,26.422,11111222 
WAVCIS,ioos:station:WAVCIS:CSI16:2,2011-08-02T10:30:00Z,29.4012,-89.0355,10.0,26.374,11111222 
WAVCIS,ioos:station:WAVCIS:CSI16:2,2011-08-02T10:45:00Z,29.4012,-89.0355,10.0,26.396,11111222 
WAVCIS,ioos:station:WAVCIS:CSI16:2,2011-08-02T11:00:00Z,29.4012,-89.0355,10.0,26.414,11111222 
WAVCIS,ioos:station:WAVCIS:CSI16:2,2011-08-02T11:15:00Z,29.4012,-89.0355,10.0,26.441,11111222 
WAVCIS,ioos:station:WAVCIS:CSI16:2,2011-08-02T11:30:00Z,29.4012,-89.0355,10.0,26.358,11111222 
WAVCIS,ioos:station:WAVCIS:CSI16:2,2011-08-02T11:45:00Z,29.4012,-89.0355,10.0,26.284,11111222 
WAVCIS,ioos:station:WAVCIS:CSI16:2,2011-08-02T12:00:00Z,29.4012,-89.0355,10.0,26.185,11111222 
WAVCIS,ioos:station:WAVCIS:CSI16:2,2011-08-02T12:15:00Z,29.4012,-89.0355,10.0,26.201,11111222 
WAVCIS,ioos:station:WAVCIS:CSI16:2,2011-08-02T12:30:00Z,29.4012,-89.0355,10.0,26.184,11111222 
WAVCIS,ioos:station:WAVCIS:CSI16:2,2011-08-02T12:45:00Z,29.4012,-89.0355,10.0,26.211,11111222 
WAVCIS,ioos:station:WAVCIS:CSI16:2,2011-08-02T13:00:00Z,29.4012,-89.0355,10.0,26.188,11111222 
WAVCIS,ioos:station:WAVCIS:CSI16:2,2011-08-02T13:15:00Z,29.4012,-89.0355,10.0,27.1,11111222 
WAVCIS,ioos:station:WAVCIS:CSI16:2,2011-08-02T13:30:00Z,29.4012,-89.0355,10.0,28.159,11111222 
WAVCIS,ioos:station:WAVCIS:CSI16:2,2011-08-02T13:45:00Z,29.4012,-89.0355,10.0,26.311,11111222 
WAVCIS,ioos:station:WAVCIS:CSI16:2,2011-08-02T14:00:00Z,29.4012,-89.0355,10.0,26.278,11111222 
WAVCIS,ioos:station:WAVCIS:CSI16:2,2011-08-02T14:15:00Z,29.4012,-89.0355,10.0,26.072,11111222 
WAVCIS,ioos:station:WAVCIS:CSI16:2,2011-08-02T14:30:00Z,29.4012,-89.0355,10.0,25.916,11111222 
WAVCIS,ioos:station:WAVCIS:CSI16:2,2011-08-02T14:45:00Z,29.4012,-89.0355,10.0,25.854,11111222 
WAVCIS,ioos:station:WAVCIS:CSI16:2,2011-08-02T15:00:00Z,29.4012,-89.0355,10.0,25.804,11111222 
WAVCIS,ioos:station:WAVCIS:CSI16:2,2011-08-02T15:15:00Z,29.4012,-89.0355,10.0,25.776,11111222 
WAVCIS,ioos:station:WAVCIS:CSI16:2,2011-08-02T15:30:00Z,29.4012,-89.0355,10.0,25.746,11111222 
WAVCIS,ioos:station:WAVCIS:CSI16:2,2011-08-02T15:45:00Z,29.4012,-89.0355,10.0,25.732,11111222 
WAVCIS,ioos:station:WAVCIS:CSI16:2,2011-08-02T16:00:00Z,29.4012,-89.0355,10.0,25.707,11111222 
WAVCIS,ioos:station:WAVCIS:CSI16:2,2011-08-02T16:15:00Z,29.4012,-89.0355,10.0,25.697,11111222 
WAVCIS,ioos:station:WAVCIS:CSI16:2,2011-08-02T16:30:00Z,29.4012,-89.0355,10.0,25.696,11111222 
WAVCIS,ioos:station:WAVCIS:CSI16:2,2011-08-02T16:45:00Z,29.4012,-89.0355,10.0,25.69,11111222 
WAVCIS,ioos:station:WAVCIS:CSI16:2,2011-08-02T17:00:00Z,29.4012,-89.0355,10.0,25.694,11111222 
WAVCIS,ioos:station:WAVCIS:CSI16:2,2011-08-02T17:15:00Z,29.4012,-89.0355,10.0,25.691,11111222 
WAVCIS,ioos:station:WAVCIS:CSI16:2,2011-08-02T17:30:00Z,29.4012,-89.0355,10.0,25.684,11111222 
WAVCIS,ioos:station:WAVCIS:CSI16:2,2011-08-02T17:45:00Z,29.4012,-89.0355,10.0,25.691,11111222 
WAVCIS,ioos:station:WAVCIS:CSI16:2,2011-08-02T18:00:00Z,29.4012,-89.0355,10.0,25.688,11111222 
WAVCIS,ioos:station:WAVCIS:CSI16:2,2011-08-02T18:15:00Z,29.4012,-89.0355,10.0,25.684,11111222 
WAVCIS,ioos:station:WAVCIS:CSI16:2,2011-08-02T18:30:00Z,29.4012,-89.0355,10.0,25.677,11111222 
WAVCIS,ioos:station:WAVCIS:CSI16:2,2011-08-02T18:45:00Z,29.4012,-89.0355,10.0,25.674,11111222 
WAVCIS,ioos:station:WAVCIS:CSI16:2,2011-08-02T19:00:00Z,29.4012,-89.0355,10.0,25.667,11111222 
WAVCIS,ioos:station:WAVCIS:CSI16:2,2011-08-02T19:15:00Z,29.4012,-89.0355,10.0,25.664,11111222 
WAVCIS,ioos:station:WAVCIS:CSI16:2,2011-08-02T19:30:00Z,29.4012,-89.0355,10.0,25.663,11111222 
WAVCIS,ioos:station:WAVCIS:CSI16:2,2011-08-02T19:45:00Z,29.4012,-89.0355,10.0,25.663,11111222 
WAVCIS,ioos:station:WAVCIS:CSI16:2,2011-08-02T20:00:00Z,29.4012,-89.0355,10.0,25.674,11111222 
WAVCIS,ioos:station:WAVCIS:CSI16:2,2011-08-02T20:15:00Z,29.4012,-89.0355,10.0,25.741,11111222 
WAVCIS,ioos:station:WAVCIS:CSI16:2,2011-08-02T20:30:00Z,29.4012,-89.0355,10.0,25.757,11111222 
WAVCIS,ioos:station:WAVCIS:CSI16:2,2011-08-02T20:45:00Z,29.4012,-89.0355,10.0,25.773,11111222 
WAVCIS,ioos:station:WAVCIS:CSI16:2,2011-08-02T21:00:00Z,29.4012,-89.0355,10.0,25.836,11111222 
WAVCIS,ioos:station:WAVCIS:CSI16:2,2011-08-02T21:15:00Z,29.4012,-89.0355,10.0,25.902,11111222 
WAVCIS,ioos:station:WAVCIS:CSI16:2,2011-08-02T21:30:00Z,29.4012,-89.0355,10.0,26.017,11111222 
WAVCIS,ioos:station:WAVCIS:CSI16:2,2011-08-02T21:45:00Z,29.4012,-89.0355,10.0,26.065,11111222 
WAVCIS,ioos:station:WAVCIS:CSI16:2,2011-08-02T22:00:00Z,29.4012,-89.0355,10.0,26.562,11111222 
WAVCIS,ioos:station:WAVCIS:CSI16:2,2011-08-02T22:15:00Z,29.4012,-89.0355,10.0,26.639,11111222 
WAVCIS,ioos:station:WAVCIS:CSI16:2,2011-08-02T22:30:00Z,29.4012,-89.0355,10.0,26.813,11111222 
WAVCIS,ioos:station:WAVCIS:CSI16:2,2011-08-02T22:45:00Z,29.4012,-89.0355,10.0,26.934,11111222 
WAVCIS,ioos:station:WAVCIS:CSI16:2,2011-08-02T23:00:00Z,29.4012,-89.0355,10.0,27.129,11111222 
WAVCIS,ioos:station:WAVCIS:CSI16:2,2011-08-02T23:15:00Z,29.4012,-89.0355,10.0,27.305,11111222 
WAVCIS,ioos:station:WAVCIS:CSI16:2,2011-08-02T23:30:00Z,29.4012,-89.0355,10.0,27.58,11111222 
WAVCIS,ioos:station:WAVCIS:CSI16:2,2011-08-02T23:45:00Z,29.4012,-89.0355,10.0,27.799,11111222 
WAVCIS,ioos:station:WAVCIS:CSI16:2,2011-08-03T00:00:00Z,29.4012,-89.0355,10.0,28.176,11111222 
WAVCIS,ioos:station:WAVCIS:CSI16:2,2011-08-03T00:15:00Z,29.4012,-89.0355,10.0,27.986,11111222 
WAVCIS,ioos:station:WAVCIS:CSI16:2,2011-08-03T00:30:00Z,29.4012,-89.0355,10.0,27.917,11111222 
WAVCIS,ioos:station:WAVCIS:CSI16:2,2011-08-03T00:45:00Z,29.4012,-89.0355,10.0,27.996,11111222 
WAVCIS,ioos:station:WAVCIS:CSI16:2,2011-08-03T01:00:00Z,29.4012,-89.0355,10.0,28.279,11111222 
WAVCIS,ioos:station:WAVCIS:CSI16:2,2011-08-03T01:15:00Z,29.4012,-89.0355,10.0,28.332,11111222 
WAVCIS,ioos:station:WAVCIS:CSI16:2,2011-08-03T01:30:00Z,29.4012,-89.0355,10.0,28.444,11111222 
WAVCIS,ioos:station:WAVCIS:CSI16:2,2011-08-03T01:45:00Z,29.4012,-89.0355,10.0,29.012,11111222 
WAVCIS,ioos:station:WAVCIS:CSI16:2,2011-08-03T02:00:00Z,29.4012,-89.0355,10.0,28.767,11111222 
WAVCIS,ioos:station:WAVCIS:CSI16:2,2011-08-03T02:15:00Z,29.4012,-89.0355,10.0,28.0,11111222 
WAVCIS,ioos:station:WAVCIS:CSI16:2,2011-08-03T02:30:00Z,29.4012,-89.0355,10.0,28.75,11111222 
WAVCIS,ioos:station:WAVCIS:CSI16:2,2011-08-03T02:45:00Z,29.4012,-89.0355,10.0,28.2,11111222 
WAVCIS,ioos:station:WAVCIS:CSI16:2,2011-08-03T03:00:00Z,29.4012,-89.0355,10.0,28.289,11111222 
WAVCIS,ioos:station:WAVCIS:CSI16:2,2011-08-03T03:15:00Z,29.4012,-89.0355,10.0,28.296,11111222 
WAVCIS,ioos:station:WAVCIS:CSI16:2,2011-08-03T03:30:00Z,29.4012,-89.0355,10.0,27.876,11111222 
WAVCIS,ioos:station:WAVCIS:CSI16:2,2011-08-03T03:45:00Z,29.4012,-89.0355,10.0,26.621,11111222 
WAVCIS,ioos:station:WAVCIS:CSI16:2,2011-08-03T04:00:00Z,29.4012,-89.0355,10.0,25.94,11111222 
WAVCIS,ioos:station:WAVCIS:CSI16:2,2011-08-03T04:15:00Z,29.4012,-89.0355,10.0,25.923,11111222 
WAVCIS,ioos:station:WAVCIS:CSI16:2,2011-08-03T04:30:00Z,29.4012,-89.0355,10.0,25.922,11111222 
WAVCIS,ioos:station:WAVCIS:CSI16:2,2011-08-03T04:45:00Z,29.4012,-89.0355,10.0,25.971,11111222 
WAVCIS,ioos:station:WAVCIS:CSI16:2,2011-08-03T05:00:00Z,29.4012,-89.0355,10.0,25.898,11111222 
WAVCIS,ioos:station:WAVCIS:CSI16:2,2011-08-03T05:15:00Z,29.4012,-89.0355,10.0,25.913,11111222 
WAVCIS,ioos:station:WAVCIS:CSI16:2,2011-08-03T05:30:00Z,29.4012,-89.0355,10.0,25.892,11111222 
WAVCIS,ioos:station:WAVCIS:CSI16:2,2011-08-03T05:45:00Z,29.4012,-89.0355,10.0,25.886,11111222 
WAVCIS,ioos:station:WAVCIS:CSI16:2,2011-08-03T06:00:00Z,29.4012,-89.0355,10.0,25.889,11111222 
WAVCIS,ioos:station:WAVCIS:CSI16:2,2011-08-03T06:15:00Z,29.4012,-89.0355,10.0,25.895,11111222 
WAVCIS,ioos:station:WAVCIS:CSI16:2,2011-08-03T06:30:00Z,29.4012,-89.0355,10.0,25.972,11111222 
WAVCIS,ioos:station:WAVCIS:CSI16:2,2011-08-03T06:45:00Z,29.4012,-89.0355,10.0,25.977,11111222 
WAVCIS,ioos:station:WAVCIS:CSI16:2,2011-08-03T07:00:00Z,29.4012,-89.0355,10.0,25.987,11111222 
WAVCIS,ioos:station:WAVCIS:CSI16:2,2011-08-03T07:15:00Z,29.4012,-89.0355,10.0,25.929,11111222 
WAVCIS,ioos:station:WAVCIS:CSI16:2,2011-08-03T07:30:00Z,29.4012,-89.0355,10.0,25.913,11111222 
WAVCIS,ioos:station:WAVCIS:CSI16:2,2011-08-03T07:45:00Z,29.4012,-89.0355,10.0,25.913,11111222 
WAVCIS,ioos:station:WAVCIS:CSI16:2,2011-08-03T08:00:00Z,29.4012,-89.0355,10.0,25.898,11111222 
WAVCIS,ioos:station:WAVCIS:CSI16:2,2011-08-03T08:15:00Z,29.4012,-89.0355,10.0,25.624,11111222 
WAVCIS,ioos:station:WAVCIS:CSI16:2,2011-08-03T08:30:00Z,29.4012,-89.0355,10.0,25.699,11111222 
WAVCIS,ioos:station:WAVCIS:CSI16:2,2011-08-03T08:45:00Z,29.4012,-89.0355,10.0,25.763,11111222 
WAVCIS,ioos:station:WAVCIS:CSI16:2,2011-08-03T09:00:00Z,29.4012,-89.0355,10.0,25.676,11111222 
WAVCIS,ioos:station:WAVCIS:CSI16:2,2011-08-03T09:15:00Z,29.4012,-89.0355,10.0,25.733,11111222 
WAVCIS,ioos:station:WAVCIS:CSI16:2,2011-08-03T09:30:00Z,29.4012,-89.0355,10.0,25.822,11111222 
WAVCIS,ioos:station:WAVCIS:CSI16:2,2011-08-03T09:45:00Z,29.4012,-89.0355,10.0,25.821,11111222 
WAVCIS,ioos:station:WAVCIS:CSI16:2,2011-08-03T10:00:00Z,29.4012,-89.0355,10.0,25.808,11111222 
WAVCIS,ioos:station:WAVCIS:CSI16:2,2011-08-03T10:15:00Z,29.4012,-89.0355,10.0,25.772,11111222 
WAVCIS,ioos:station:WAVCIS:CSI16:2,2011-08-03T10:30:00Z,29.4012,-89.0355,10.0,25.747,11111222 
WAVCIS,ioos:station:WAVCIS:CSI16:2,2011-08-03T10:45:00Z,29.4012,-89.0355,10.0,25.913,11111222 
WAVCIS,ioos:station:WAVCIS:CSI16:2,2011-08-03T11:00:00Z,29.4012,-89.0355,10.0,25.833,11111222 
WAVCIS,ioos:station:WAVCIS:CSI16:2,2011-08-03T11:15:00Z,29.4012,-89.0355,10.0,26.788,11111222 
WAVCIS,ioos:station:WAVCIS:CSI16:2,2011-08-03T11:30:00Z,29.4012,-89.0355,10.0,26.222,11111222 
WAVCIS,ioos:station:WAVCIS:CSI16:2,2011-08-03T11:45:00Z,29.4012,-89.0355,10.0,26.414,11111222 
WAVCIS,ioos:station:WAVCIS:CSI16:2,2011-08-03T12:00:00Z,29.4012,-89.0355,10.0,26.85,11111222 
WAVCIS,ioos:station:WAVCIS:CSI16:2,2011-08-03T12:15:00Z,29.4012,-89.0355,10.0,26.665,11111222 
WAVCIS,ioos:station:WAVCIS:CSI16:2,2011-08-03T12:30:00Z,29.4012,-89.0355,10.0,26.837,11111222 
WAVCIS,ioos:station:WAVCIS:CSI16:2,2011-08-03T12:45:00Z,29.4012,-89.0355,10.0,26.839,11111222 
WAVCIS,ioos:station:WAVCIS:CSI16:2,2011-08-03T13:00:00Z,29.4012,-89.0355,10.0,26.471,11111222 
WAVCIS,ioos:station:WAVCIS:CSI16:2,2011-08-03T13:15:00Z,29.4012,-89.0355,10.0,26.791,11111222 
WAVCIS,ioos:station:WAVCIS:CSI16:2,2011-08-03T13:30:00Z,29.4012,-89.0355,10.0,26.465,11111222 
WAVCIS,ioos:station:WAVCIS:CSI16:2,2011-08-03T13:45:00Z,29.4012,-89.0355,10.0,26.426,11111222 
WAVCIS,ioos:station:WAVCIS:CSI16:2,2011-08-03T14:00:00Z,29.4012,-89.0355,10.0,26.272,11111222 
WAVCIS,ioos:station:WAVCIS:CSI16:2,2011-08-03T14:15:00Z,29.4012,-89.0355,10.0,26.233,11111222 
WAVCIS,ioos:station:WAVCIS:CSI16:2,2011-08-03T14:30:00Z,29.4012,-89.0355,10.0,26.15,11111222 
WAVCIS,ioos:station:WAVCIS:CSI16:2,2011-08-03T14:45:00Z,29.4012,-89.0355,10.0,26.006,11111222 